#timestamp,LO_Frequency,Hit 
1501700415.5,286047000.2,N
1501700435.3,286046999.7,N
1501700455.1,286047000.3,N
1501700475.9,286047002.8,N
1501700495.7,286046999.7,N
1501700515.5,286046999.8,N
1501700535.4,286047002.4,N
1501700555.2,286047004.1,P
1501700575.0,286047003.7,N
1501700575.9,286047003.7,N
1501700595.8,286047003.3,N
1501700615.6,286047003.2,N
1501700635.4,286047004.4,P
1501700655.3,286046998.9,N
1501700675.1,286047001.2,N
1501700695.8,286046998.2,N
1501700715.7,286047000.8,N
1501700735.5,286047000.3,N
1501700755.3,286047000.6,N
1501700775.2,286046998.6,N
1501700795.9,286047000.7,N
1501700815.7,286046998.4,N
1501700835.6,286046998.2,N
1501700855.4,286047001.2,N
1501700875.2,286046999.0,N
1501700895.0,286046999.3,N
1501700895.9,286046999.3,N
1501700915.8,286046997.2,N
1501700935.6,286046995.3,N
1501700955.4,286046995.2,N
1501700975.3,286046995.4,N
1501700995.1,286046996.2,N
1501700996.0,286046996.2,N
1501701015.8,286046997.3,N
1501701035.7,286047001.1,N
1501701055.5,286047000.6,N
1501701075.3,286046998.7,N
1501701095.2,286046998.3,N
1501701115.9,286046999.9,N
1501701135.7,286047002.7,N
1501701155.5,286047001.0,N
1501701175.4,286046999.9,N
1501701195.2,286047000.2,N
1501701215.0,286047003.6,N
1501701215.9,286047003.6,N
1501701235.8,286047003.9,N
1501701255.6,286047001.9,N
1501701275.4,286047001.8,N
1501701295.3,286047003.7,N
1501701315.1,286047006.0,N
1501701316.0,286047006.0,N
1501701335.8,286047004.8,N
1501701355.7,286047003.2,N
1501701375.5,286047005.4,N
1501701395.3,286047006.0,N
1501701415.2,286047003.0,N
1501701435.9,286047003.2,N
1501701455.7,286047002.9,N
1501701475.5,286047003.1,N
1501701495.4,286047005.3,N
1501701515.2,286047007.6,N
1501701535.0,286047005.7,N
1501701535.9,286047005.7,N
1501701555.8,286047005.5,N
1501701575.6,286047005.2,N
1501701595.4,286047005.2,N
1501701615.3,286047007.5,P
1501701635.1,286047001.7,N
1501701655.8,286047001.3,N
1501701675.7,286047000.0,N
1501701695.5,286046999.7,N
1501701715.3,286047000.1,N
1501701735.2,286047000.3,N
1501701755.9,286047001.9,N
1501701775.7,286047000.1,N
1501701795.6,286047000.3,N
1501701815.4,286046999.7,N
1501701835.2,286047002.5,N
1501701855.0,286047000.3,N
1501701855.9,286047000.3,N
1501701875.8,286047000.4,N
1501701895.6,286046999.8,N
1501701915.4,286047000.2,N
1501701935.3,286047000.1,N
1501701955.1,286047001.6,N
1501701956.0,286047001.6,N
1501701975.8,286047001.3,N
1501701995.7,286047002.2,N
1501702015.5,286047002.8,N
1501702035.3,286047000.4,N
1501702055.2,286047001.2,N
1501702075.9,286047002.5,N
1501702095.7,286047002.2,N
1501702115.5,286047001.5,N
1501702135.4,286047001.9,N
1501702155.2,286047002.2,N
1501702175.0,286047004.4,N
1501702176.0,286047004.4,P
1501702195.8,286046999.7,N
1501702215.6,286047002.3,N
1501702235.4,286047002.6,N
1501702255.3,286047002.1,N
1501702275.1,286047000.2,N
1501702295.8,286047000.3,N
1501702315.7,286046998.6,N
1501702335.5,286047002.6,N
1501702355.3,286047001.9,N
1501702375.2,286047004.1,N
1501702395.9,286046999.8,N
1501702415.7,286046999.9,N
1501702435.5,286047000.4,N
1501702455.4,286047000.9,N
1501702475.2,286047003.7,N
1501702495.0,286047003.3,N
1501702495.9,286047003.3,N
1501702515.8,286047003.6,N
1501702535.6,286047001.4,N
1501702555.4,286047004.2,N
1501702575.3,286047003.3,N
1501702595.1,286047005.1,P
1501702615.8,286047001.7,N
1501702635.7,286047001.9,N
1501702655.5,286047001.6,N
1501702675.3,286047003.5,N
1501702695.2,286047003.6,N
1501702715.9,286047003.7,N
1501702735.7,286047001.9,N
1501702755.6,286047002.7,N
1501702775.4,286047001.9,N
1501702795.2,286047003.8,P
1501702815.1,286047002.3,P
1501702816.0,286047002.3,P
1501702835.8,286047000.7,N
1501702855.6,286047002.7,N
1501702875.5,286047002.5,N
1501702895.3,286046998.1,N
1501702915.1,286046996.9,N
1501702935.8,286046994.9,N
1501702955.7,286046995.4,N
1501702975.5,286046995.9,N
1501702995.3,286046993.9,N
1501703015.2,286046994.8,N
1501703035.9,286046992.1,N
1501703055.7,286046994.2,N
1501703075.6,286046996.2,N
1501703095.4,286046993.9,N
1501703115.2,286046993.3,N
1501703135.1,286046995.3,N
1501703136.0,286046995.3,N
1501703155.8,286046994.9,N
1501703175.6,286046990.8,N
1501703195.4,286046989.6,N
1501703215.3,286046989.2,N
1501703235.1,286046988.5,N
1501703255.8,286046989.0,N
1501703275.7,286046988.9,N
1501703295.5,286046991.6,N
1501703315.3,286046989.0,N
1501703335.2,286046990.8,N
1501703355.9,286046990.7,N
1501703375.7,286046991.1,N
1501703395.6,286046990.5,N
1501703415.4,286046992.4,N
1501703435.2,286046993.0,N
1501703455.1,286046992.2,N
1501703456.0,286046992.2,N
1501703475.8,286046996.1,N
1501703495.6,286046994.1,N
1501703515.5,286046992.1,P
1501703535.3,286046999.1,P
1501703555.1,286046999.1,N
1501703575.9,286047000.1,N
1501703595.7,286046998.8,N
1501703615.5,286046998.4,N
1501703635.4,286047000.8,N
1501703655.2,286047002.8,N
1501703675.0,286047002.6,N
1501703675.9,286047002.6,N
1501703695.7,286046999.9,N
1501703715.6,286047000.6,N
1501703735.4,286047002.5,N
1501703755.2,286047004.0,N
1501703775.1,286047000.3,N
1501703776.0,286047000.3,N
1501703795.8,286047000.5,N
1501703815.6,286047000.5,N
1501703835.5,286047001.0,N
1501703855.3,286047000.3,N
1501703875.1,286047001.1,N
1501703895.9,286046997.8,N
1501703915.7,286046999.5,N
1501703935.5,286046997.3,N
1501703955.3,286046996.9,N
1501703975.2,286046996.1,N
1501703995.0,286046995.7,N
1501703995.9,286046995.7,N
